Regional Weather Roundup
Issued by NWS

Home | Current Version | Previous Version | Graphics & Text | Print | Product List | Glossary On
Versions: 1 2 3 4 5 6 7 8 9 10 11 12 13 14 15 16 17 18 19 20 21 22 23 24 25 26 27 28 29 30 31 32 33 34 35 36 37 38 39 40 41 42 43 44 45 46 47 48 49 50
000
ASUS45 KCYS 031410
RWRWY

WYOMING REGIONAL WEATHER ROUNDUP
NATIONAL WEATHER SERVICE CHEYENNE WY
700 AM MST TUE MAR 03 2015

NOTE:  "FAIR" INDICATES FEW OR NO CLOUDS BELOW 12,000 FEET
WITH NO SIGNIFICANT WEATHER AND/OR OBSTRUCTIONS TO VISIBILITY.

WYZ001-031500-
YELLOWSTONE NATIONAL PARK

CITY           SKY/WX    TMP DP  RH WIND       PRES   REMARKS
LK YELLOWSTONE   N/A      3  -5  69 VRB6      29.74R WCI  -8
W YELLOWSTONE  NOT AVBL

$$
WYZ002>013-054>058-071-098>099-031500-
NORTHERN WYOMING

CITY           SKY/WX    TMP DP  RH WIND       PRES   REMARKS
JACKSON        SNOW      14  12  92 N32       29.68R VSB 1/4 WCI  -7
CODY           CLOUDY     7   3  85 NW13      29.98R WCI  -9
GREYBULL       LGT SNOW  14   9  80 NW25      29.97R VSB 3/4 WCI  -5
WORLAND        LGT SNOW  13   9  84 W14G25    29.97R VSB 3/4 WCI  -2
SHERIDAN       LGT SNOW  13   8  81 W13       30.04S WCI  -2
BUFFALO        CLOUDY     9   6  88 N18       29.94R WCI -10
GILLETTE       LGT SNOW   6   2  83 NW7       29.97S FOG     WCI  -6
HULETT         LGT SNOW  10   5  79 N10       29.98R WCI  -3
NEWCASTLE      FAIR      12   1  62 N18G24    29.93R WCI  -5

$$
WYZ014>020-022>026-101>103-031500-
CENTRAL WYOMING

CITY           SKY/WX    TMP DP  RH WIND       PRES   REMARKS
BIG PINEY      FAIR      15  11  83 SE15      29.69S WCI   0
PINEDALE       CLOUDY    18  16  93 SE8       29.70S WCI   7
DUBOIS         LGT SNOW  10   7  85 E12G21    29.70R WCI  -4
LANDER         SNOW      12   8  84 E10       29.86R VSB 1/2 WCI  -1
RIVERTON       LGT SNOW  10   6  84 NE7       29.88R VSB 1   WCI  -1
CASPER         LGT SNOW   9   5  84 NE9       29.92R FOG     WCI  -4
DOUGLAS        LGT SNOW  10   6  84 N18       29.95R FOG     WCI  -8

$$
WYZ021-027>030-104>119-031500-
SOUTHERN WYOMING

CITY           SKY/WX    TMP DP  RH WIND       PRES   REMARKS
EVANSTON       SNOW      24  22  91 SW9       29.69F VSB 1/2 WCI  14
KEMMERER       PTSUNNY   21  19  93 SW5       29.68F WCI  15
FORT BRIDGER   PTSUNNY   21  21  98 SW7       29.72F WCI  13
ROCK SPRINGS   FLURRIES  16  13  88 E13       29.75S WCI   2
DIXON          FAIR      14  12  90 NE5       29.79R WCI   7
RAWLINS        LGT SNOW   9   5  84 CALM      29.77R FOG
SARATOGA       LGT SNOW  12  10  92 W9        29.75R WCI   0
LARAMIE        FLURRIES  14   9  80 N7        29.72R WCI   4
CHEYENNE       LGT SNOW  14   8  77 N24G32    29.77R WCI  -5
TORRINGTON     HVY SNOW  15  10  80 N21G28    29.91R VSB 1/4 WCI  -2
PINE BLUFFS    LGT SNOW  19  18  93 N25G32    29.81R WCI   2

$$



USA.gov is the U.S. government's official web portal to all federal, state and local government web resources and services.